Location: Newark
(37.9128°N, 122.4756°W)
Time: 06:03:04
(UTC+00:00)

Hubble Space Telescope - Visible Passes

Search period start: 04 March 2021 00:00
Search period end: 14 March 2021 00:00
Orbit: 535 x 539 km, 28.5° (Epoch: 03 March)

Date Brightness Start Highest point End Pass type
(mag) Time Alt. Az. Time Alt. Az. Time Alt. Az.
06 Mar 3.0 02:42:04 10° S 02:43:39 12° SSE 02:45:14 10° SE visible
06 Mar 3.2 04:21:03 10° SW 04:21:59 14° SSW 04:21:59 14° SSW visible
07 Mar 2.8 04:10:02 10° SW 04:11:51 18° SSW 04:11:51 18° SSW visible
08 Mar 2.5 03:59:03 10° SW 04:01:42 21° SSW 04:01:42 21° SSW visible
09 Mar 2.4 03:48:07 10° SW 03:51:18 22° S 03:51:31 21° S visible
10 Mar 2.4 03:37:12 10° SW 03:40:20 21° S 03:41:20 19° SSE visible
11 Mar 2.6 03:26:20 10° SW 03:29:23 20° S 03:31:09 16° SSE visible
12 Mar 2.8 03:15:30 10° SW 03:18:25 19° S 03:20:59 11° SSE visible
13 Mar 2.9 03:04:43 10° SW 03:07:26 17° SSW 03:10:09 10° SSE visible
